Weather in Belyy Yar

Russia / Khanty-Mansi Autonomous Okrug — Yugra     61°15′38″N   73°15′08″E
temp.,
°C
wind,
m/s
gust,
m/s
humid.,
%
clouds,
%
prec.,
mm/h
press.,
hPa
HPBL,
m
26 january, tue
tue2623:00−32se5997100 0.1 1035301
02:00−31se51098100 0.6 1032313
05:00−30se51197100 1.3 1030332
08:00−29sse51196100 0.1 1028366
11:00−27sse51097100 0.4 1026393
14:00−24sse51198100 1.1 1022424
17:00−22sse61098100 2.3 1019375
20:00−20s4898100 1.3 1015349
27 january, wed
wed2723:00−18s2497100 1.9 1013206
02:00−16wnw129798 0.3 1013110
05:00−19nnw489498 0.4 1015286
08:00−24nnw379496 0.0 1019177
11:00−24n369399 0.0 1023261
14:00−26n359399 0.0 1026216
17:00−31nne239385 0.0 102827
20:00−31ene2291100 0.0 102945
28 january, thu
thu2823:00−30e239099 0.0 1029116
02:00−29ese3598100 0.1 1029200
05:00−28e4797100 0.5 1028229
08:00−27ese5998100 0.3 1024252
11:00−24ese5998100 1.4 1021297
14:00−22ese5899100 2.9 1017253
17:00−20ese3599100 4.6 1014154
20:00−20ene3598100 1.1 1013134
29 january, fri
fri2923:00−21ene3499100 1.7 1013122
02:00−24ne229889 0.3 101520
05:00−26n239779 0.3 101936
08:00−29nnw349618 0.0 102293
11:00−29nnw359428 0.0 1025236
14:00−30nnw479263 0.0 1026361
17:00−34n369435 0.0 1031120
20:00−36n36940 0.0 1033124
30 january, sat
sat3023:00−38nne34940 0.0 103672
02:00−39nne34940 0.0 103863
05:00−40ne23920 0.0 104044
08:00−40ene33900 0.0 104243
11:00−37e359010 0.0 1042161
14:00−35e3689100 0.0 1042197
17:00−35e488890 0.0 1041198
20:00−34ese51087100 0.0 1040257